LINCON Weather Reports


time (UTC)temp
F
wind
direction
speed
knots
gust
knots
rain 1hr
in
rain 24hr
in
rain mn
in
humidity
%
barometer
mb
20260507015012 59 0 0.0 0.0 0.00 0.00 0.00 80 1018.4
20260507014512 59 0 0.0 0.0 0.00 0.00 0.00 80 1018.4
20260507014013 59 0 0.0 0.0 0.00 0.00 0.00 80 1018.4
20260507013512 60 0 0.0 0.0 0.00 0.00 0.00 80 1018.4
20260507013014 60 0 0.0 0.0 0.00 0.00 0.00 79 1018.5
20260507012515 60 0 0.0 0.0 0.00 0.00 0.00 79 1018.5
20260507012012 60 0 0.0 0.0 0.00 0.00 0.00 79 1018.5
20260507011513 60 0 0.0 5.2 0.00 0.00 0.00 79 1018.4
20260507011012 60 319 0.0 5.2 0.00 0.00 0.00 79 1018.5
20260507010512 60 355 0.0 5.2 0.00 0.00 0.00 79 1018.6
20260507010012 60 0 0.0 1.7 0.00 0.00 0.00 79 1018.6
20260507005512 60 0 0.0 1.7 0.00 0.00 0.00 79 1018.6
20260507005012 60 344 0.0 1.7 0.00 0.00 0.00 79 1018.6
20260507004512 60 0 0.0 0.0 0.00 0.00 0.00 78 1018.6
20260507004012 60 0 0.0 0.0 0.00 0.00 0.00 78 1018.6
20260507003512 60 0 0.0 0.0 0.00 0.00 0.00 78 1018.7
20260507003014 61 0 0.0 0.0 0.00 0.00 0.00 78 1018.6
20260507002512 61 0 0.0 0.0 0.00 0.00 0.00 78 1018.6
20260507002013 61 0 0.0 0.0 0.00 0.00 0.00 78 1018.6
20260507001512 61 0 0.0 0.0 0.00 0.00 0.00 78 1018.6
20260507001013 61 0 0.0 0.0 0.00 0.00 0.00 78 1018.7
20260507000512 61 0 0.0 0.0 0.00 0.00 0.00 78 1018.7
20260507000016 61 0 0.0 0.0 0.00 0.00 0.00 78 1018.7
20260506235512 61 0 0.0 0.0 0.00 0.00 0.00 78 1018.8
20260506235012 61 0 0.0 0.0 0.00 0.00 0.00 78 1018.8
20260506234513 61 0 0.0 0.0 0.00 0.00 0.00 78 1018.7
20260506234015 61 0 0.0 0.0 0.00 0.00 0.00 77 1018.8
20260506233514 61 0 0.0 0.0 0.00 0.00 0.00 77 1018.8
20260506233012 61 0 0.0 0.0 0.00 0.00 0.00 77 1018.9
20260506232512 61 0 0.0 0.0 0.00 0.00 0.00 76 1018.8
20260506232012 61 0 0.0 4.3 0.00 0.00 0.00 76 1018.9
20260506231512 62 0 0.0 4.3 0.00 0.00 0.00 76 1018.9
20260506230512 62 0 0.0 0.0 0.00 0.00 0.00 75 1018.9
20260506230013 62 0 0.0 0.0 0.00 0.00 0.00 75 1019.0
20260506225512 62 0 0.0 2.6 0.00 0.00 0.00 75 1019.0
20260506225012 62 0 0.0 2.6 0.00 0.00 0.00 75 1019.0
20260506224512 62 330 0.0 2.6 0.00 0.00 0.00 74 1019.0
20260506224013 62 324 0.0 3.5 0.00 0.00 0.00 74 1019.1
20260506223512 63 0 0.0 3.5 0.00 0.00 0.00 74 1019.1
20260506223016 63 0 0.0 3.5 0.00 0.00 0.00 74 1019.2
20260506222512 63 324 0.0 5.2 0.00 0.00 0.00 74 1019.2
20260506222012 63 337 0.0 5.2 0.00 0.00 0.00 73 1019.3
20260506221512 63 0 0.0 5.2 0.00 0.00 0.00 74 1019.2
20260506221012 63 329 0.0 5.2 0.00 0.00 0.00 74 1019.2
20260506220512 63 336 0.9 5.2 0.00 0.00 0.00 74 1019.1
20260506220012 63 327 0.0 5.2 0.00 0.00 0.00 74 1019.1
20260506215512 62 0 0.0 0.0 0.00 0.00 0.00 74 1019.1
20260506215012 62 0 0.0 0.0 0.00 0.00 0.00 74 1019.1
20260506214512 62 0 0.0 0.0 0.00 0.00 0.00 73 1019.0
20260506214012 62 0 0.0 0.0 0.00 0.00 0.00 73 1019.0
20260506213512 63 0 0.0 0.0 0.00 0.00 0.00 73 1018.9
20260506213012 63 0 0.0 0.0 0.00 0.00 0.00 73 1018.9
20260506212513 63 0 0.0 0.0 0.00 0.00 0.00 73 1018.9
20260506212012 63 0 0.0 0.0 0.00 0.00 0.00 73 1019.0
20260506211512 63 0 0.0 0.0 0.00 0.00 0.00 73 1019.0
20260506211012 62 0 0.0 0.0 0.00 0.00 0.00 73 1019.0
20260506210512 62 0 0.0 0.0 0.00 0.00 0.00 73 1019.0
20260506210012 62 0 0.0 0.0 0.00 0.00 0.00 73 1019.0
20260506205512 62 0 0.0 0.0 0.00 0.00 0.00 74 1019.0
20260506205013 62 0 0.0 0.0 0.00 0.00 0.00 74 1018.9
20260506204512 62 0 0.0 0.0 0.00 0.00 0.00 74 1018.9
20260506204012 62 0 0.0 0.0 0.00 0.00 0.00 75 1018.9
20260506203512 62 0 0.0 0.0 0.00 0.00 0.00 75 1018.8
20260506203012 62 0 0.0 0.0 0.00 0.00 0.00 74 1018.8
20260506202512 62 0 0.0 0.0 0.00 0.00 0.00 75 1018.8
20260506202011 62 0 0.0 0.0 0.00 0.00 0.00 75 1018.8
20260506201512 61 0 0.0 0.0 0.00 0.00 0.00 75 1018.8
20260506201012 61 0 0.0 0.0 0.00 0.00 0.00 74 1018.8
20260506200513 61 0 0.0 0.0 0.00 0.00 0.00 75 1018.8
20260506200012 61 0 0.0 0.0 0.00 0.00 0.00 75 1018.8
20260506195511 61 0 0.0 0.0 0.00 0.00 0.00 75 1018.8
20260506195012 61 0 0.0 0.0 0.00 0.00 0.00 77 1018.9
20260506194513 61 0 0.0 0.0 0.00 0.00 0.00 77 1018.9
20260506194012 60 0 0.0 0.0 0.00 0.00 0.00 77 1018.8
20260506193512 60 0 0.0 0.0 0.00 0.00 0.00 77 1018.8
20260506193013 60 0 0.0 0.0 0.00 0.00 0.00 77 1018.8
20260506192512 60 0 0.0 0.0 0.00 0.00 0.00 77 1018.8
20260506192012 60 0 0.0 0.0 0.00 0.00 0.00 77 1018.8
20260506191512 60 0 0.0 0.0 0.00 0.00 0.00 77 1018.8
20260506191012 60 0 0.0 0.0 0.00 0.00 0.00 77 1018.7
20260506190511 60 0 0.0 0.0 0.00 0.00 0.00 77 1018.8
20260506190018 60 0 0.0 0.0 0.00 0.00 0.00 77 1018.8
20260506185513 60 0 0.0 0.0 0.00 0.00 0.00 76 1018.8
20260506185012 60 0 0.0 0.0 0.00 0.00 0.00 76 1018.8
20260506184512 60 0 0.0 0.0 0.00 0.00 0.00 76 1018.8
20260506184012 61 0 0.0 0.0 0.00 0.00 0.00 76 1018.7
20260506183512 61 0 0.0 0.0 0.00 0.00 0.00 76 1018.7
20260506183012 61 0 0.0 0.0 0.00 0.00 0.00 76 1018.7
20260506182512 61 0 0.0 0.0 0.00 0.00 0.00 76 1018.6
20260506182011 61 0 0.0 0.0 0.00 0.00 0.00 76 1018.6
20260506181514 61 0 0.0 0.0 0.00 0.00 0.00 76 1018.5
20260506181012 61 0 0.0 0.0 0.00 0.00 0.00 76 1018.4
20260506180512 60 0 0.0 0.0 0.00 0.00 0.00 76 1018.4
20260506180012 60 0 0.0 0.0 0.00 0.00 0.00 76 1018.3
20260506175629 60 0 0.0 0.0 0.00 0.00 0.00 76 1018.3
20260506175512 60 0 0.0 0.0 0.00 0.00 0.00 76 1018.3
20260506175012 60 0 0.0 0.0 0.00 0.00 0.00 76 1018.2
20260506174512 60 0 0.0 0.0 0.00 0.00 0.00 77 1018.2
20260506174012 60 0 0.0 0.0 0.00 0.00 0.00 77 1018.1
20260506173512 59 0 0.0 0.0 0.00 0.00 0.00 78 1018.1
20260506173012 59 0 0.0 0.0 0.00 0.00 0.00 78 1018.1
20260506172513 59 0 0.0 0.0 0.00 0.00 0.00 78 1018.1
20260506172012 59 0 0.0 0.0 0.00 0.00 0.00 79 1018.1
20260506171512 59 0 0.0 0.0 0.00 0.00 0.00 79 1018.0
20260506171012 59 0 0.0 0.0 0.00 0.00 0.00 79 1018.1
20260506170514 59 0 0.0 0.0 0.00 0.00 0.00 80 1018.0
20260506170012 59 0 0.0 0.0 0.00 0.00 0.00 80 1017.9
20260506165512 58 0 0.0 0.0 0.00 0.00 0.00 80 1017.8
20260506165013 58 0 0.0 0.0 0.00 0.00 0.00 80 1017.9
20260506164511 58 0 0.0 0.0 0.00 0.00 0.00 81 1018.0
20260506164012 58 0 0.0 0.0 0.00 0.00 0.00 81 1017.9
20260506163512 58 0 0.0 0.0 0.00 0.00 0.00 81 1017.9
20260506163012 58 0 0.0 0.0 0.00 0.00 0.00 82 1017.8
20260506162512 58 0 0.0 0.0 0.00 0.00 0.00 82 1017.8
20260506162012 58 0 0.0 0.0 0.00 0.00 0.00 82 1017.8
20260506161512 57 0 0.0 0.0 0.00 0.00 0.00 83 1017.7
20260506161012 57 0 0.0 0.0 0.00 0.00 0.00 83 1017.8
20260506160512 57 0 0.0 0.0 0.00 0.00 0.00 83 1017.6
20260506160012 57 0 0.0 0.0 0.00 0.00 0.00 84 1017.7
20260506155512 57 0 0.0 0.0 0.00 0.00 0.00 84 1017.7
20260506155012 57 0 0.0 0.0 0.00 0.00 0.00 84 1017.7
20260506154511 56 0 0.0 0.0 0.00 0.00 0.00 84 1017.6
20260506154018 56 0 0.0 0.0 0.00 0.00 0.00 84 1017.5
20260506153512 56 0 0.0 0.0 0.00 0.00 0.00 85 1017.4
20260506153012 56 0 0.0 0.0 0.00 0.00 0.00 85 1017.5
20260506152511 56 0 0.0 0.0 0.00 0.00 0.00 86 1017.5
20260506152012 56 0 0.0 0.0 0.00 0.00 0.00 86 1017.2
20260506151512 56 0 0.0 0.0 0.00 0.00 0.00 86 1017.2
20260506151012 56 0 0.0 0.0 0.00 0.00 0.00 86 1017.1
20260506150511 56 0 0.0 0.0 0.00 0.00 0.00 86 1017.1
20260506150013 56 0 0.0 0.0 0.00 0.00 0.00 86 1017.2
20260506145511 55 0 0.0 0.0 0.00 0.00 0.00 86 1017.1
20260506145012 55 0 0.0 0.0 0.00 0.00 0.00 86 1016.9
20260506144512 55 0 0.0 0.0 0.00 0.00 0.00 86 1016.8
20260506144011 56 0 0.0 0.0 0.00 0.00 0.00 86 1017.0
20260506143512 56 0 0.0 0.0 0.00 0.00 0.00 86 1017.2
20260506143013 56 0 0.0 0.0 0.00 0.00 0.00 86 1017.1
20260506142511 56 0 0.0 0.0 0.00 0.00 0.00 86 1017.3
20260506142011 55 0 0.0 0.0 0.00 0.00 0.00 86 1017.2
20260506141511 55 0 0.0 0.0 0.00 0.00 0.00 86 1017.3
20260506141012 55 0 0.0 0.0 0.00 0.00 0.00 86 1017.2
20260506140511 55 0 0.0 0.0 0.00 0.00 0.00 86 1017.2
20260506140011 55 0 0.0 0.0 0.00 0.00 0.00 87 1017.2
20260506135511 55 0 0.0 0.0 0.00 0.00 0.00 87 1017.2
20260506135012 55 0 0.0 0.0 0.00 0.00 0.00 87 1017.1
20260506134511 55 0 0.0 0.0 0.00 0.00 0.00 87 1017.0
20260506134011 55 0 0.0 0.0 0.00 0.00 0.00 86 1016.8
20260506133511 55 0 0.0 0.0 0.00 0.00 0.00 86 1016.8
20260506133012 55 0 0.0 0.0 0.00 0.00 0.00 86 1016.7
20260506132511 55 0 0.0 0.0 0.00 0.00 0.00 86 1016.7
20260506132011 55 0 0.0 0.0 0.00 0.00 0.00 86 1016.7
20260506131511 55 0 0.0 0.0 0.00 0.00 0.00 86 1016.7
20260506131012 55 0 0.0 0.0 0.00 0.00 0.00 86 1016.7
20260506130511 55 0 0.0 0.0 0.00 0.00 0.00 86 1016.8
20260506130013 55 0 0.0 0.0 0.00 0.00 0.00 86 1016.7
20260506125511 55 0 0.0 0.0 0.00 0.00 0.00 86 1016.7
20260506125011 55 0 0.0 0.0 0.00 0.00 0.00 86 1016.5
20260506124511 55 0 0.0 0.0 0.00 0.00 0.00 86 1016.4
20260506124011 55 0 0.0 0.0 0.00 0.00 0.00 86 1016.4
20260506123511 55 0 0.0 0.0 0.00 0.00 0.00 86 1016.3
20260506123011 55 0 0.0 0.0 0.00 0.00 0.00 86 1016.3
20260506122511 55 0 0.0 0.0 0.00 0.00 0.00 86 1016.3
20260506122012 55 0 0.0 0.0 0.00 0.00 0.00 86 1016.2
20260506121511 55 0 0.0 0.0 0.00 0.00 0.00 85 1016.1
20260506121011 55 0 0.0 0.0 0.00 0.00 0.00 85 1016.1
20260506120511 55 0 0.0 0.0 0.00 0.00 0.00 85 1016.2
20260506120013 55 0 0.0 0.0 0.00 0.00 0.00 85 1016.2
20260506115511 55 0 0.0 0.0 0.00 0.00 0.00 85 1016.2
20260506115011 55 0 0.0 0.0 0.00 0.00 0.00 85 1016.1
20260506114512 55 0 0.0 0.0 0.00 0.00 0.00 85 1016.1
20260506114013 55 0 0.0 0.0 0.00 0.00 0.00 85 1016.1
20260506113511 55 0 0.0 0.0 0.00 0.01 0.00 85 1016.1
20260506113011 55 0 0.0 0.0 0.00 0.01 0.00 85 1016.2
20260506112511 55 0 0.0 0.0 0.00 0.01 0.00 84 1016.1
20260506112011 55 0 0.0 0.0 0.00 0.01 0.00 84 1016.0
20260506111511 56 0 0.0 0.0 0.00 0.01 0.00 84 1016.1
20260506111013 56 0 0.0 0.0 0.00 0.01 0.00 84 1016.1
20260506110512 56 0 0.0 0.0 0.00 0.01 0.00 84 1016.1
20260506110013 56 0 0.0 0.0 0.00 0.01 0.00 84 1016.1
20260506105511 56 0 0.0 0.0 0.00 0.01 0.00 84 1016.0
20260506105011 56 0 0.0 0.0 0.00 0.01 0.00 84 1016.1
20260506104512 55 0 0.0 0.0 0.00 0.01 0.00 85 1016.0
20260506104011 56 0 0.0 0.0 0.00 0.01 0.00 85 1015.9
20260506103514 56 0 0.0 0.0 0.00 0.01 0.00 85 1015.8
20260506103011 56 0 0.0 0.0 0.00 0.01 0.00 85 1015.9
20260506102511 56 0 0.0 0.0 0.00 0.01 0.00 85 1015.8
20260506102013 56 0 0.0 0.0 0.00 0.01 0.00 85 1015.7
20260506101639 56 0 0.0 0.0 0.00 0.01 0.00 85 1015.6
20260506101511 56 0 0.0 0.0 0.00 0.01 0.00 85 1015.6
20260506101012 56 0 0.0 0.0 0.00 0.01 0.00 85 1015.6
20260506100511 56 0 0.0 0.0 0.00 0.01 0.00 85 1015.6
20260506100011 56 0 0.0 0.0 0.00 0.01 0.00 85 1015.5
20260506095628 56 0 0.0 0.0 0.00 0.01 0.00 85 1015.6
20260506095511 56 0 0.0 0.0 0.00 0.01 0.00 85 1015.6
20260506095012 56 0 0.0 0.0 0.00 0.01 0.00 85 1015.5
20260506094512 56 0 0.0 0.0 0.00 0.01 0.00 86 1015.4
20260506094012 56 0 0.0 0.0 0.00 0.01 0.00 86 1015.4
20260506093511 56 0 0.0 0.0 0.00 0.01 0.00 86 1015.4
20260506093011 56 0 0.0 0.0 0.00 0.01 0.00 86 1015.3
20260506092511 56 0 0.0 0.0 0.00 0.01 0.00 85 1015.3
20260506092011 56 0 0.0 0.0 0.00 0.01 0.00 85 1015.3
20260506091512 56 0 0.0 0.0 0.00 0.01 0.00 85 1015.3
20260506091011 56 0 0.0 0.0 0.00 0.01 0.00 86 1015.2
20260506090511 56 0 0.0 0.0 0.00 0.01 0.00 86 1015.2
20260506090011 56 0 0.0 0.0 0.00 0.01 0.00 86 1015.2
20260506085511 56 0 0.0 0.0 0.00 0.01 0.00 86 1015.2
20260506085103 56 0 0.0 0.0 0.00 0.01 0.00 86 1015.1
20260506085011 56 0 0.0 0.0 0.00 0.01 0.00 86 1015.1
20260506084512 56 0 0.0 0.0 0.00 0.01 0.00 86 1015.1
20260506084011 56 0 0.0 0.0 0.00 0.01 0.00 86 1015.0
20260506083511 56 0 0.0 0.0 0.00 0.01 0.00 86 1015.1
20260506083011 56 0 0.0 0.0 0.00 0.01 0.00 86 1015.1
20260506082514 56 0 0.0 0.0 0.00 0.01 0.00 86 1015.0
20260506082011 56 0 0.0 0.0 0.00 0.01 0.00 86 1015.0
20260506081511 56 0 0.0 0.0 0.00 0.01 0.00 86 1015.0
20260506081013 56 0 0.0 0.0 0.00 0.01 0.00 86 1015.0
20260506080512 56 0 0.0 0.0 0.00 0.01 0.00 86 1014.9
20260506073514 56 0 0.0 0.0 0.00 0.02 0.00 85 1014.6
20260506073012 56 0 0.0 0.0 0.00 0.02 0.00 85 1014.5
20260506072514 56 0 0.0 0.0 0.00 0.02 0.00 85 1014.4
20260506072011 56 0 0.0 0.0 0.00 0.02 0.00 85 1014.4
20260506071511 56 0 0.0 0.0 0.00 0.02 0.00 85 1014.3
20260506071011 56 0 0.0 0.0 0.00 0.02 0.00 85 1014.3
20260506070511 56 0 0.0 0.0 0.00 0.02 0.00 85 1014.2
20260506062511 56 0 0.0 0.0 0.00 0.02 0.00 84 1014.1
20260506062011 56 0 0.0 0.0 0.00 0.02 0.00 84 1014.1
20260506061511 56 0 0.0 0.0 0.00 0.02 0.00 84 1014.1
20260506061012 56 0 0.0 0.0 0.00 0.02 0.00 84 1014.1
20260506060511 57 0 0.0 0.0 0.00 0.02 0.00 84 1014.0
20260506051011 57 0 0.0 0.0 0.00 0.02 0.00 84 1014.1
20260506050511 57 0 0.0 0.0 0.00 0.02 0.00 84 1014.1
20260506045012 57 0 0.0 0.0 0.00 0.02 0.00 83 1014.0
20260506044511 57 0 0.0 0.0 0.00 0.02 0.00 83 1013.9
20260506044011 57 0 0.0 0.0 0.00 0.02 0.00 83 1013.8
20260506043514 57 0 0.0 0.0 0.00 0.02 0.00 83 1013.8
20260506043011 57 0 0.0 0.0 0.00 0.02 0.00 83 1013.7
20260506042511 57 0 0.0 0.0 0.00 0.02 0.00 83 1013.7
20260506042012 57 0 0.0 0.0 0.00 0.02 0.00 83 1013.7
20260506041511 58 0 0.0 0.0 0.00 0.02 0.00 83 1013.7
20260506041014 58 0 0.0 0.0 0.00 0.02 0.00 83 1013.6
20260506040511 58 0 0.0 0.0 0.00 0.02 0.00 83 1013.5
20260506040015 58 0 0.0 0.0 0.00 0.02 0.00 83 1013.5
20260506035011 58 0 0.0 0.0 0.00 0.02 0.00 83 1013.4
20260506034511 58 0 0.0 0.0 0.00 0.02 0.00 83 1013.3
20260506034011 58 0 0.0 0.0 0.00 0.02 0.00 82 1013.2
20260506033511 58 0 0.0 0.0 0.00 0.02 0.00 82 1013.1
20260506033011 58 0 0.0 0.0 0.00 0.02 0.00 83 1013.1
20260506032511 58 0 0.0 0.0 0.00 0.02 0.00 83 1013.0
20260506032011 58 0 0.0 7.0 0.00 0.02 0.00 83 1013.0
20260506031511 58 341 0.0 7.0 0.00 0.02 0.00 83 1013.0
20260506031014 58 345 4.3 7.0 0.00 0.02 0.00 82 1012.9
20260506030511 59 344 0.0 7.8 0.00 0.02 0.00 82 1012.9
20260506025511 59 331 0.0 7.8 0.00 0.02 0.00 82 1012.9
20260506025011 59 348 5.2 7.0 0.00 0.02 0.00 82 1012.9
20260506024514 59 0 1.7 1.7 0.00 0.02 0.00 81 1012.8
20260506024011 59 0 0.0 0.0 0.00 0.02 0.00 81 1012.9
20260506023011 59 0 0.0 4.3 0.00 0.02 0.00 80 1012.8
20260506022511 59 0 0.0 4.3 0.00 0.02 0.00 80 1012.8
20260506022011 60 352 0.0 4.3 0.00 0.02 0.00 80 1012.8
20260506021511 60 330 1.7 4.3 0.00 0.02 0.00 80 1012.8
20260506021011 60 0 0.0 0.0 0.00 0.02 0.00 80 1012.8
20260506020511 60 0 0.0 0.0 0.00 0.02 0.00 80 1012.8
20260506020013 60 0 0.0 5.2 0.00 0.02 0.00 80 1012.8
20260506015511 60 347 0.0 5.2 0.00 0.02 0.00 79 1012.9